Tracking 32412 objects as of 7-Dec-2025
HD Live streaming from Space Station
objects crossing your sky now

STARLINK-30322

Track STARLINK-30322 now!
10-day predictions
STARLINK-30322 is classified as:


NORAD ID: 57670
Int'l Code: 2023-124H
Perigee: 480.7 km
Apogee: 484.1 km
Inclination: 53.2 °
Period: 94.1 minutes
Semi major axis: 6853 km
RCS: Unknown
Launch date: August 22, 2023
Source: United States (US)
Launch site: AIR FORCE WESTERN TEST RANGE (AFWTR)
Your satellite tracking list
Your tracking list is empty




NASA's NSSDC Master Catalog

Two Line Element Set (TLE):
1 57670U 23124H   25340.56445600 -.00001091  00000-0 -24702-4 0  9993
2 57670  53.1617 279.6280 0002478  78.1090 282.0188 15.30192258129300
Source of the keplerian elements: AFSPC